Regional Weather Roundup
Issued by NWS

Home | Current Version | Previous Version | Graphics & Text | Print | Product List | Glossary On
Versions: 1 2 3 4 5 6 7 8 9 10 11 12 13 14 15 16 17 18 19 20 21 22 23 24 25 26 27 28 29 30 31 32 33 34 35 36 37 38 39 40 41 42 43 44 45 46 47 48 49 50
000
ASUS43 KDTX 200910
RWRMI
MICHIGAN HOURLY REGIONAL WEATHER ROUNDUP
NATIONAL WEATHER SERVICE DETROIT/PONTIAC MI
400 AM EST MON NOV 20 2017

NOTE: "FAIR" INDICATES FEW OR NO CLOUDS BELOW 12,000 FEET WITH NO
SIGNIFICANT WEATHER AND/OR OBSTRUCTION TO VISIBILITY.

MIZ047>049-052>055-059>063-066>070-074>076-081>083-201000-
SOUTHEAST LOWER MICHIGAN

CITY           SKY/WX    TMP DP  RH WIND       PRES   REMARKS
ADRIAN         CLOUDY    27  22  81 W6        30.05F WCI  20
ALMA           CLOUDY    31  27  83 SW7       29.95F WCI  25
ANN ARBOR      MOCLDY    28  23  81 S7        30.02S WCI  21
BAD AXE        CLOUDY    27  21  80 SW6       29.95S WCI  20
CARO           CLOUDY    28  23  80 SW6       29.95F WCI  22
DETROIT CITY   PTCLDY    30  23  75 SW12      30.02F WCI  20
DETROIT        MOCLDY    29  22  75 SW10      30.03R WCI  20
FLINT          MOCLDY    29  23  78 SW8       29.98F WCI  21
GROSSE ILE     CLEAR     30  24  78 SW8       30.04S WCI  22
HILLSDALE      CLEAR     28  23  80 SW5       30.02S WCI  23
HOWELL         CLOUDY    31  26  83 SW9       29.99S WCI  22

CITY           SKY/WX    TMP DP  RH WIND       PRES   REMARKS
JACKSON        CLOUDY    29  22  75 SW12      30.01F WCI  19
LAMBERTVILLE   CLEAR     31  24  73 W9        30.07S WCI  23
LANSING        CLOUDY    30  25  81 SW10      29.99S WCI  21
LAPEER         CLOUDY    29  23  78 SW6       29.97F WCI  23
MASON          CLOUDY    32  26  77 SW5       30.00F WCI  27
MONROE         CLEAR     30  24  77 SW10      30.04F WCI  21
MT. CLEMENS    PTCLDY    29  24  80 SW9       29.98F WCI  21
PONTIAC        PTCLDY    28  23  81 SW5       29.98S WCI  23
PORT HOPE        N/A     30  22  72 SW5       29.92F WCI  25
PORT HURON     CLOUDY    27  21  80 S3        30.00S
TRI CITIES     CLOUDY    31  25  78 SW7       29.95F WCI  24
MIDLAND        CLOUDY    31  23  74 S5        29.93F WCI  26
TROY           PTCLDY    31  24  76 S7        30.02S WCI  24
SAGINAW HB     CLOUDY    32  25  74 SW9       29.96S WCI  24
$$
MIZ043>046-050>051-056>058-064>065-071>073-077>080-201000-
SOUTHWEST LOWER MICHIGAN

CITY           SKY/WX    TMP DP  RH WIND       PRES   REMARKS
BATTLE CREEK   CLEAR     27  23  85 S12       30.01F WCI  17
BENTON HARBOR  CLEAR     30  22  72 S7        30.01F WCI  23
BIG RAPIDS     MOCLDY    28  23  82 SE5       29.90F WCI  23
COLDWATER      CLEAR     28  22  78 SW8       30.04S WCI  19
FREMONT        CLOUDY    33  29  87 S5        29.92F WCI  28
HOLLAND        CLEAR     39  30  70 SW13      29.97F WCI  31
GRAND RAPIDS   MOCLDY    32  29  88 S9        29.97S WCI  24
IONIA          MOCLDY    32  26  79 SW10      29.96F WCI  23
KALAMAZOO      CLEAR     28  20  71 SW13      30.01F WCI  17
LUDINGTON      CLOUDY    37  29  72 W7        29.89F WCI  31
MARSHALL       CLEAR     28  22  81 SW8       30.01F WCI  19
MOUNT PLEASANT CLOUDY    32  24  72 SW5       29.92F WCI  27
MUSKEGON       CLOUDY    41  30  65 SW12      29.94F
SOUTH HAVEN    CLEAR     35  27  70 S6G18     29.99F WCI  30
$$
MIZ016>042-201000-
NORTHERN LOWER MICHIGAN

CITY           SKY/WX    TMP DP  RH WIND       PRES   REMARKS
ALPENA         CLOUDY    30  22  72 W7        29.86F WCI  23
BEAVER ISLAND  PTCLDY    31  21  66 W7        29.85F WCI  24
BELLAIRE       CLOUDY    30  26  84 S5        29.87F WCI  25
CADILLAC       CLOUDY    27  23  84 SW5       29.86F WCI  22
CHARLEVOIX     MOCLDY    35  24  65 W13       29.87F WCI  26
FRANKFORT      MOCLDY    38  28  67 W8G16     29.87F WCI  32
GAYLORD        CLOUDY    25  20  81 SW8       29.83F WCI  16
GRAYLING       MOCLDY    25  20  82 SW3       29.86F
HARBOR SPRINGS CLOUDY    32  23  69 W6        29.84F WCI  26
MANISTEE       CLOUDY    36  28  73 SW5       29.88F WCI  32
OSCODA         CLEAR     23  17  80 SW6       29.90F WCI  15
PELLSTON       CLOUDY    30  21  69 W7        29.85F WCI  23
ROGERS CITY    CLOUDY    29  20  70 SW5       29.86F WCI  24
TRAVERSE CITY  MOCLDY    31  23  72 S3        29.86F
$$
MIZ007>008-015-201000-
EASTERN UPPER MICHIGAN

CITY           SKY/WX    TMP DP  RH WIND       PRES   REMARKS
KINROSS        CLOUDY    26  19  74 W7        29.82S WCI  18
MACKINAC ISLAN CLOUDY    31  21  67 W15       29.83F WCI  20
NEWBERRY       CLOUDY    25  21  87 SW7       29.81F WCI  17
S. S. MARIE    MIX PCPN  27  19  72 SW9       29.80F WCI  18
MUNISING         N/A     25  18  74 SW10      29.83S WCI  15
$$
MIZ004>006-011>014-085-201000-
CENTRAL UPPER MICHIGAN

CITY           SKY/WX    TMP DP  RH WIND       PRES   REMARKS
MANISTIQUE     CLEAR     24  11  58 SW3       29.84S
ESCANABA       PTCLDY    21  20  96 W5        29.85F WCI  15
MENOMINEE      CLOUDY    28  20  71 W3        29.86F
SAWYER-GWINN   PTCLDY    19  16  90 S3        29.80F
$$
MIZ001>003-009>011-084-201000-
WESTERN UPPER MICHIGAN

CITY           SKY/WX    TMP DP  RH WIND       PRES   REMARKS
IRON MOUNTAIN  PTCLDY    20  15  81 CALM      29.79F
HOUGHTON       CLOUDY    25  20  81 CALM      29.76F
COPPER HARBOR    N/A     24  18  77 W3        29.79F
IRONWOOD       CLOUDY   N/A N/A N/A S5        29.75F
$$

ABBREVIATIONS USED IN REMARKS
   TC - TEMPERATURE IN CELSIUS
  WCI - WIND CHILL INDEX
   HX - HEAT INDEX
  VSB - VISIBILITY





USA.gov is the U.S. government's official web portal to all federal, state and local government web resources and services.